OBJECT C, 66055

Orbit data source: Space-Track

You're viewing an Uncataloged Satellite

Recently launched and/or uncataloged satellites may have evolving metadata. Metadata may include but not limited to: Owner, Maufacturer, Bus, Motor, and Mission.

OBJECT C, 66055 is a satellite in SSO that was launched on Sun, 19 Oct 2025 UTC via a LIJIAN-1 launch vehicle from the Jiuquan Satellite Launch Center, China (JSC). Unknown objects in Earth's orbit typically refer to objects detected orbiting the Earth but have not yet been identified or cataloged. These objects could be anything from previously untracked satellites, spent rocket stages, debris from satellite collisions, or even natural meteoroids temporarily captured by Earth's gravity.

Loading next visibility...
Identifier
66055, 2025-234C
Orbit
SSO
Country
Flag of TBDTBD
Related business
None
Manufacturer
Unknown
Mission
Operational Commercial Radar Imaging
Bus & Motor
Unknown
Mass
Unknown
Launch date (UTC)
2025-10-19 (8 months ago)
Launch vehicle
LIJIAN-1
Launch site
Jiuquan Satellite Launch Center, China (JSC)
Object type
Unknown
Shape & HBR
Box + 3 Pan, 0.9 m
Radar Cross Section
3.533 m², Large (>1 m²)

Expand to show TLE details & history
Last TLE update: 16 hours ago

TLE from 16 hours ago
0 OBJECT C
1 66055U 25234C   26171.17272731  .00003891  00000-0  16228-3 0  9998
2 66055  97.4252 239.5329 0015777 143.4407 216.7910 15.24174054 37140
Epoch: 2026-06-20T04:08Z
TLE epoch observation values (Epoch: 2026-06-20T04:08:43.639Z)
Latitude
-0.00008°
Longitude
-91.04008°
Altitude
505.052 km
Speed
7.607 km/s
True Right ascension
15h 58m 07s
True Declination
0° 00' 00"
Sunlit
Object was in full shadow at epoch
Visualization orbit readout
Latitude
Unknown
Longitude
Unknown
Altitude
Unknown
Speed
Unknown
Apparent Right ascension
Unknown
Apparent Declination
Unknown
Sunlit
N/A
Visualization observer readout
Local Sidereal Time
07:19:21
Azimuth
Unknown
Elevation
Unknown
Doppler factor
Unknown
Orbital elements
Apogee altitude
501.064 km
Perigee altitude
479.392 km
Semi-major axis
6,868.365 km
Eccentricity
0.00158
Inclination
97.4252°
RAAN
239.5329°
Arg. of periapsis
143.4407°
True anomaly
216.6829°
Mean anomaly
216.791°
Eccentric anomaly
216.73693°
Mean motion
3.81297 °/min
Orbital period
94.41 mins
BSTAR
0.00016228
Loading maneuver chart data...
Computing Atmospheric mass density...
Loading historical data...
Loading historical data...
Loading historical data...
Loading historical data...
Loading historical data...
Loading historical data...
Loading historical data...
Other satellites on launch #234 in the year 2025 (2025-10-19 UTC)

Documentation

Showing up to 5 results
|